This is the latest recevied weather packets stored in our database for station/object KC9NPJ-13. If no packets are shown the sender has not sent any weather packets the latest 10 day(s).
| Time | Temp. | Humidity | Pressure | Rain* | Wind** | Luminosity | Snow |
|---|---|---|---|---|---|---|---|
| 1777563863 | 15° C | 48% | 1020.1 hPa | 0 mm | - | - | - |
| 1777563563 | 15° C | 53% | 1020.2 hPa | 0 mm | - | - | - |
| 1777563263 | 14.44° C | 48% | 1020.1 hPa | 0 mm | - | - | - |
| 1777562963 | 14.44° C | 48% | 1020 hPa | 0 mm | - | - | - |
| 1777562663 | 14.44° C | 51% | 1019.8 hPa | 0 mm | - | - | - |
| 1777562363 | 13.89° C | 49% | 1019.6 hPa | 0 mm | - | - | - |
| 1777562063 | 13.89° C | 50% | 1019.7 hPa | 0 mm | - | - | - |
| 1777561763 | 13.89° C | 52% | 1019.8 hPa | 0 mm | - | - | - |
| 1777561463 | 13.89° C | 49% | 1019.8 hPa | 0 mm | - | - | - |
| 1777561163 | 13.89° C | 45% | 1019.7 hPa | 0 mm | - | - | - |
| 1777560863 | 13.89° C | 49% | 1019.8 hPa | 0 mm | - | - | - |
| 1777560563 | 13.89° C | 56% | 1019.7 hPa | 0 mm | - | - | - |
| 1777560263 | 13.89° C | 52% | 1019.8 hPa | 0 mm | - | - | - |
| 1777559963 | 13.89° C | 57% | 1019.8 hPa | 0 mm | - | - | - |
| 1777559663 | 13.89° C | 56% | 1019.6 hPa | 0 mm | - | - | - |
| 1777559363 | 13.33° C | 58% | 1019.7 hPa | 0 mm | - | - | - |
| 1777559063 | 13.33° C | 58% | 1019.9 hPa | 0 mm | - | - | - |
| 1777558763 | 13.33° C | 60% | 1019.8 hPa | 0 mm | - | - | - |
| 1777558463 | 12.78° C | 66% | 1019.8 hPa | 0 mm | - | - | - |
| 1777558163 | 12.78° C | 64% | 1019.7 hPa | 0 mm | - | - | - |
| 1777557863 | 12.22° C | 65% | 1019.7 hPa | 0 mm | - | - | - |
| 1777557563 | 11.67° C | 67% | 1019.8 hPa | 0 mm | - | - | - |
| 1777557263 | 11.67° C | 65% | 1019.9 hPa | 0 mm | - | - | - |
| 1777556963 | 11.11° C | 71% | 1019.9 hPa | 0 mm | - | - | - |
| 1777556663 | 11.11° C | 74% | 1019.9 hPa | 0 mm | - | - | - |
* Rain latest hour (hover to see other rain measurements)
** Current wind speed in m/s (hover to see current wind gust speed)